Location: Asheville, NC
(35.6000°N, 82.5500°W)
Time: 16:17:55
(UTC-05:00)

N. Korean satellite - Pass Details

Date: 12 February 2018
Orbit: 459 x 514 km, 97.2° (Epoch: 21 February)

Event Time Altitude Azimuth Distance (km) Brightness Sun altitude
Rises 19:11:34 0° 198° (SSW) 2,472 10.5 -13.2°
Reaches altitude 10° 19:14:00 10° 216° (SW) 1,598 9.8 -13.7°
Maximum altitude 19:16:33 19° 265° (W) 1,139 9.6 -14.2°
Drops below altitude 10° 19:19:06 10° 313° (NW) 1,603 9.8 -14.7°
Sets 19:21:34 0° 331° (NNW) 2,483 10.5 -15.2°
